| time (UTC) | temp F | wind direction | speed knots | gust knots | rain 1hr in | rain 24hr in | rain mn in | humidity % | barometer mb |
| 20260905205006 | 93 | 173 | 1.7 | 5.2 | 0.00 | 0.00 | 0.00 | 63 | 1012.2 |
| 20260905204506 | 92 | 178 | 2.6 | 6.1 | 0.00 | 0.00 | 0.00 | 63 | 1012.6 |
| 20260905204007 | 92 | 178 | 2.6 | 6.1 | 0.00 | 0.00 | 0.00 | 63 | 1012.6 |
| 20260905203508 | 92 | 178 | 2.6 | 6.1 | 0.00 | 0.00 | 0.00 | 63 | 1012.6 |
| 20260905203006 | 92 | 180 | 1.7 | 5.2 | 0.00 | 0.00 | 0.00 | 62 | 1012.8 |
| 20260905202506 | 92 | 180 | 1.7 | 5.2 | 0.00 | 0.00 | 0.00 | 62 | 1012.8 |
| 20260905202006 | 92 | 180 | 1.7 | 5.2 | 0.00 | 0.00 | 0.00 | 62 | 1012.8 |
| 20260905201507 | 92 | 169 | 2.6 | 6.1 | 0.00 | 0.00 | 0.00 | 61 | 1013.0 |
| 20260905201007 | 92 | 169 | 2.6 | 6.1 | 0.00 | 0.00 | 0.00 | 61 | 1013.0 |
| 20260905200506 | 92 | 169 | 2.6 | 6.1 | 0.00 | 0.00 | 0.00 | 61 | 1013.0 |
| 20260905200007 | 90 | 179 | 1.7 | 5.2 | 0.00 | 0.00 | 0.00 | 63 | 1013.2 |
| 20260905195507 | 90 | 179 | 1.7 | 5.2 | 0.00 | 0.00 | 0.00 | 63 | 1013.2 |
| 20260905195006 | 90 | 179 | 1.7 | 5.2 | 0.00 | 0.00 | 0.00 | 63 | 1013.2 |
| 20260905194507 | 92 | 192 | 1.7 | 4.3 | 0.00 | 0.00 | 0.00 | 58 | 1013.5 |
| 20260905194006 | 92 | 192 | 1.7 | 4.3 | 0.00 | 0.00 | 0.00 | 58 | 1013.5 |
| 20260905193508 | 92 | 192 | 1.7 | 4.3 | 0.00 | 0.00 | 0.00 | 58 | 1013.5 |
| 20260905193007 | 92 | 164 | 1.7 | 3.5 | 0.00 | 0.00 | 0.00 | 60 | 1013.4 |
| 20260905192506 | 92 | 164 | 1.7 | 3.5 | 0.00 | 0.00 | 0.00 | 60 | 1013.4 |
| 20260905192220 | 92 | 164 | 1.7 | 3.5 | 0.00 | 0.00 | 0.00 | 60 | 1013.4 |
| 20260905191723 | 92 | 164 | 1.7 | 3.5 | 0.00 | 0.00 | 0.00 | 60 | 1013.4 |
| 20260905191006 | 92 | 41 | 1.7 | 4.3 | 0.00 | 0.00 | 0.00 | 61 | 1013.6 |
| 20260905190506 | 92 | 41 | 1.7 | 4.3 | 0.00 | 0.00 | 0.00 | 61 | 1013.6 |
| 20260905190222 | 92 | 41 | 1.7 | 4.3 | 0.00 | 0.00 | 0.00 | 61 | 1013.6 |
| 20260905185506 | 91 | 180 | 1.7 | 3.5 | 0.00 | 0.00 | 0.00 | 58 | 1013.9 |
| 20260905185006 | 91 | 180 | 1.7 | 3.5 | 0.00 | 0.00 | 0.00 | 58 | 1013.9 |
| 20260905184506 | 91 | 167 | 1.7 | 3.5 | 0.00 | 0.00 | 0.00 | 58 | 1014.3 |
| 20260905184221 | 91 | 167 | 1.7 | 3.5 | 0.00 | 0.00 | 0.00 | 58 | 1014.3 |
| 20260905183507 | 91 | 167 | 1.7 | 3.5 | 0.00 | 0.00 | 0.00 | 58 | 1014.3 |
| 20260905183007 | 90 | 187 | 1.7 | 2.6 | 0.00 | 0.00 | 0.00 | 60 | 1014.4 |
| 20260905182506 | 90 | 187 | 1.7 | 2.6 | 0.00 | 0.00 | 0.00 | 60 | 1014.4 |
| 20260905182007 | 90 | 187 | 1.7 | 2.6 | 0.00 | 0.00 | 0.00 | 60 | 1014.4 |
| 20260905181006 | 90 | 109 | 1.7 | 6.1 | 0.00 | 0.00 | 0.00 | 59 | 1014.5 |
| 20260905180506 | 90 | 109 | 1.7 | 6.1 | 0.00 | 0.00 | 0.00 | 59 | 1014.5 |
| 20260905180006 | 89 | 73 | 2.6 | 7.0 | 0.00 | 0.00 | 0.00 | 60 | 1014.7 |
| 20260905175506 | 89 | 73 | 2.6 | 7.0 | 0.00 | 0.00 | 0.00 | 60 | 1014.7 |
| 20260905175006 | 89 | 73 | 2.6 | 7.0 | 0.00 | 0.00 | 0.00 | 60 | 1014.7 |
| 20260905174720 | 89 | 73 | 2.6 | 7.0 | 0.00 | 0.00 | 0.00 | 60 | 1014.7 |
| 20260905174007 | 89 | 47 | 1.7 | 6.1 | 0.00 | 0.00 | 0.00 | 60 | 1014.6 |
| 20260905173722 | 89 | 47 | 1.7 | 6.1 | 0.00 | 0.00 | 0.00 | 60 | 1014.6 |
| 20260905173007 | 88 | 9 | 2.6 | 5.2 | 0.00 | 0.00 | 0.00 | 63 | 1014.9 |
| 20260905172506 | 88 | 9 | 2.6 | 5.2 | 0.00 | 0.00 | 0.00 | 63 | 1014.9 |
| 20260905172007 | 88 | 9 | 2.6 | 5.2 | 0.00 | 0.00 | 0.00 | 63 | 1014.9 |
| 20260905171506 | 87 | 27 | 2.6 | 6.1 | 0.00 | 0.00 | 0.00 | 61 | 1015.1 |
| 20260905171007 | 87 | 27 | 2.6 | 6.1 | 0.00 | 0.00 | 0.00 | 61 | 1015.1 |
| 20260905170507 | 87 | 27 | 2.6 | 6.1 | 0.00 | 0.00 | 0.00 | 61 | 1015.1 |
| 20260905170007 | 88 | 115 | 1.7 | 6.1 | 0.00 | 0.00 | 0.00 | 59 | 1015.2 |
| 20260905165508 | 88 | 115 | 1.7 | 6.1 | 0.00 | 0.00 | 0.00 | 59 | 1015.2 |
| 20260905165221 | 88 | 115 | 1.7 | 6.1 | 0.00 | 0.00 | 0.00 | 59 | 1015.2 |
| 20260905164507 | 87 | 122 | 1.7 | 5.2 | 0.00 | 0.00 | 0.00 | 63 | 1015.2 |
| 20260905164006 | 87 | 122 | 1.7 | 5.2 | 0.00 | 0.00 | 0.00 | 63 | 1015.2 |
| 20260905163507 | 87 | 122 | 1.7 | 5.2 | 0.00 | 0.00 | 0.00 | 63 | 1015.2 |
| 20260905163006 | 86 | 358 | 0.9 | 3.5 | 0.00 | 0.00 | 0.00 | 63 | 1015.0 |
| 20260905162507 | 86 | 358 | 0.9 | 3.5 | 0.00 | 0.00 | 0.00 | 63 | 1015.0 |
| 20260905162007 | 86 | 358 | 0.9 | 3.5 | 0.00 | 0.00 | 0.00 | 63 | 1015.0 |
| 20260905161507 | 85 | 10 | 2.6 | 6.1 | 0.00 | 0.00 | 0.00 | 66 | 1014.9 |
| 20260905161006 | 85 | 10 | 2.6 | 6.1 | 0.00 | 0.00 | 0.00 | 66 | 1014.9 |
| 20260905160507 | 85 | 10 | 2.6 | 6.1 | 0.00 | 0.00 | 0.00 | 66 | 1014.9 |
| 20260905160006 | 84 | 29 | 2.6 | 8.7 | 0.00 | 0.00 | 0.00 | 66 | 1015.1 |
| 20260905155506 | 84 | 29 | 2.6 | 8.7 | 0.00 | 0.00 | 0.00 | 66 | 1015.1 |
| 20260905155006 | 84 | 29 | 2.6 | 8.7 | 0.00 | 0.00 | 0.00 | 66 | 1015.1 |
| 20260905154507 | 82 | 51 | 1.7 | 5.2 | 0.00 | 0.00 | 0.00 | 67 | 1015.2 |
| 20260905154006 | 82 | 51 | 1.7 | 5.2 | 0.00 | 0.00 | 0.00 | 67 | 1015.2 |
| 20260905153721 | 82 | 51 | 1.7 | 5.2 | 0.00 | 0.00 | 0.00 | 67 | 1015.2 |
| 20260905153007 | 82 | 7 | 1.7 | 5.2 | 0.00 | 0.00 | 0.00 | 66 | 1015.3 |
| 20260905152721 | 82 | 7 | 1.7 | 5.2 | 0.00 | 0.00 | 0.00 | 66 | 1015.3 |
| 20260905152008 | 82 | 7 | 1.7 | 5.2 | 0.00 | 0.00 | 0.00 | 66 | 1015.3 |
| 20260905151506 | 82 | 13 | 3.5 | 9.6 | 0.00 | 0.00 | 0.00 | 67 | 1015.6 |
| 20260905151006 | 82 | 13 | 3.5 | 9.6 | 0.00 | 0.00 | 0.00 | 67 | 1015.6 |
| 20260905150721 | 82 | 13 | 3.5 | 9.6 | 0.00 | 0.00 | 0.00 | 67 | 1015.6 |
| 20260905150220 | 82 | 13 | 3.5 | 9.6 | 0.00 | 0.00 | 0.00 | 67 | 1015.6 |
| 20260905145507 | 81 | 9 | 2.6 | 8.7 | 0.00 | 0.00 | 0.00 | 70 | 1015.3 |
| 20260905145006 | 81 | 9 | 2.6 | 8.7 | 0.00 | 0.00 | 0.00 | 70 | 1015.3 |
| 20260905144507 | 79 | 356 | 2.6 | 7.8 | 0.00 | 0.00 | 0.00 | 73 | 1015.3 |
| 20260905144006 | 79 | 356 | 2.6 | 7.8 | 0.00 | 0.00 | 0.00 | 73 | 1015.3 |
| 20260905143507 | 79 | 356 | 2.6 | 7.8 | 0.00 | 0.00 | 0.00 | 73 | 1015.3 |
| 20260905143006 | 79 | 352 | 2.6 | 5.2 | 0.00 | 0.00 | 0.00 | 72 | 1015.3 |
| 20260905142507 | 79 | 352 | 2.6 | 5.2 | 0.00 | 0.00 | 0.00 | 72 | 1015.3 |
| 20260905142007 | 79 | 352 | 2.6 | 5.2 | 0.00 | 0.00 | 0.00 | 72 | 1015.3 |
| 20260905141721 | 79 | 352 | 2.6 | 5.2 | 0.00 | 0.00 | 0.00 | 72 | 1015.3 |
| 20260905141007 | 77 | 352 | 2.6 | 8.7 | 0.00 | 0.00 | 0.00 | 75 | 1015.5 |
| 20260905140507 | 77 | 352 | 2.6 | 8.7 | 0.00 | 0.00 | 0.00 | 75 | 1015.5 |
| 20260905140007 | 79 | 5 | 2.6 | 7.0 | 0.00 | 0.00 | 0.00 | 73 | 1015.4 |
| 20260905135507 | 79 | 5 | 2.6 | 7.0 | 0.00 | 0.00 | 0.00 | 73 | 1015.4 |
| 20260905135007 | 79 | 5 | 2.6 | 7.0 | 0.00 | 0.00 | 0.00 | 73 | 1015.4 |
| 20260905134506 | 78 | 353 | 3.5 | 8.7 | 0.00 | 0.00 | 0.00 | 75 | 1015.4 |
| 20260905134007 | 78 | 353 | 3.5 | 8.7 | 0.00 | 0.00 | 0.00 | 75 | 1015.4 |
| 20260905133506 | 78 | 353 | 3.5 | 8.7 | 0.00 | 0.00 | 0.00 | 75 | 1015.4 |
| 20260905133007 | 79 | 356 | 3.5 | 7.0 | 0.00 | 0.00 | 0.00 | 78 | 1015.4 |
| 20260905132506 | 79 | 356 | 3.5 | 7.0 | 0.00 | 0.00 | 0.00 | 78 | 1015.4 |
| 20260905132007 | 79 | 356 | 3.5 | 7.0 | 0.00 | 0.00 | 0.00 | 78 | 1015.4 |
| 20260905131506 | 78 | 355 | 3.5 | 8.7 | 0.00 | 0.00 | 0.00 | 83 | 1015.5 |
| 20260905131007 | 78 | 355 | 3.5 | 8.7 | 0.00 | 0.00 | 0.00 | 83 | 1015.5 |
| 20260905130506 | 78 | 355 | 3.5 | 8.7 | 0.00 | 0.00 | 0.00 | 83 | 1015.5 |
| 20260905130006 | 78 | 357 | 2.6 | 5.2 | 0.00 | 0.00 | 0.00 | 87 | 1015.4 |
| 20260905125507 | 78 | 357 | 2.6 | 5.2 | 0.00 | 0.00 | 0.00 | 87 | 1015.4 |
| 20260905125221 | 78 | 357 | 2.6 | 5.2 | 0.00 | 0.00 | 0.00 | 87 | 1015.4 |
| 20260905124506 | 76 | 360 | 1.7 | 4.3 | 0.00 | 0.00 | 0.00 | 90 | 1015.2 |
| 20260905124006 | 76 | 360 | 1.7 | 4.3 | 0.00 | 0.00 | 0.00 | 90 | 1015.2 |
| 20260905123507 | 76 | 360 | 1.7 | 4.3 | 0.00 | 0.00 | 0.00 | 90 | 1015.2 |
| 20260905123006 | 74 | 0 | 0.0 | 0.0 | 0.00 | 0.00 | 0.00 | 95 | 1014.9 |
| 20260905122506 | 74 | 0 | 0.0 | 0.0 | 0.00 | 0.00 | 0.00 | 95 | 1014.9 |
| 20260905122008 | 74 | 0 | 0.0 | 0.0 | 0.00 | 0.00 | 0.00 | 95 | 1014.9 |
| 20260905121507 | 74 | 0 | 0.0 | 0.0 | 0.00 | 0.00 | 0.00 | 95 | 1014.5 |
| 20260905121006 | 74 | 0 | 0.0 | 0.0 | 0.00 | 0.00 | 0.00 | 95 | 1014.5 |
| 20260905120507 | 74 | 0 | 0.0 | 0.0 | 0.00 | 0.00 | 0.00 | 95 | 1014.5 |
| 20260905120006 | 73 | 0 | 0.0 | 0.0 | 0.00 | 0.00 | 0.00 | 95 | 1014.4 |
| 20260905115506 | 73 | 0 | 0.0 | 0.0 | 0.00 | 0.00 | 0.00 | 95 | 1014.4 |
| 20260905115221 | 73 | 0 | 0.0 | 0.0 | 0.00 | 0.00 | 0.00 | 95 | 1014.4 |
| 20260905114720 | 73 | 0 | 0.0 | 0.0 | 0.00 | 0.00 | 0.00 | 95 | 1014.4 |
| 20260905114008 | 73 | 0 | 0.0 | 0.0 | 0.00 | 0.00 | 0.00 | 95 | 1014.4 |
| 20260905113506 | 73 | 0 | 0.0 | 0.0 | 0.00 | 0.00 | 0.00 | 95 | 1014.4 |
| 20260905113014 | 74 | 0 | 0.0 | 0.0 | 0.00 | 0.00 | 0.00 | 95 | 1014.2 |
| 20260905112507 | 74 | 0 | 0.0 | 0.0 | 0.00 | 0.00 | 0.00 | 95 | 1014.2 |
| 20260905112006 | 74 | 0 | 0.0 | 0.0 | 0.00 | 0.00 | 0.00 | 95 | 1014.2 |
| 20260905111506 | 74 | 0 | 0.0 | 0.0 | 0.00 | 0.00 | 0.00 | 95 | 1014.2 |
| 20260905111006 | 74 | 0 | 0.0 | 0.0 | 0.00 | 0.00 | 0.00 | 95 | 1014.2 |
| 20260905110508 | 74 | 0 | 0.0 | 0.0 | 0.00 | 0.00 | 0.00 | 95 | 1014.2 |
| 20260905110006 | 74 | 136 | 0.0 | 0.9 | 0.00 | 0.00 | 0.00 | 96 | 1014.2 |
| 20260905105722 | 74 | 136 | 0.0 | 0.9 | 0.00 | 0.00 | 0.00 | 96 | 1014.2 |
| 20260905105006 | 74 | 136 | 0.0 | 0.9 | 0.00 | 0.00 | 0.00 | 96 | 1014.2 |
| 20260905104507 | 74 | 0 | 0.0 | 0.0 | 0.00 | 0.00 | 0.00 | 96 | 1014.3 |
| 20260905104220 | 74 | 0 | 0.0 | 0.0 | 0.00 | 0.00 | 0.00 | 96 | 1014.3 |
| 20260905103506 | 74 | 0 | 0.0 | 0.0 | 0.00 | 0.00 | 0.00 | 96 | 1014.3 |
| 20260905103008 | 74 | 0 | 0.0 | 0.0 | 0.00 | 0.00 | 0.00 | 96 | 1014.1 |
| 20260905102506 | 74 | 0 | 0.0 | 0.0 | 0.00 | 0.00 | 0.00 | 96 | 1014.1 |
| 20260905102007 | 74 | 0 | 0.0 | 0.0 | 0.00 | 0.00 | 0.00 | 96 | 1014.1 |
| 20260905101719 | 74 | 0 | 0.0 | 0.0 | 0.00 | 0.00 | 0.00 | 96 | 1014.1 |
| 20260905101007 | 74 | 0 | 0.0 | 0.0 | 0.00 | 0.00 | 0.00 | 96 | 1014.2 |
| 20260905100507 | 74 | 0 | 0.0 | 0.0 | 0.00 | 0.00 | 0.00 | 96 | 1014.2 |
| 20260905100006 | 74 | 0 | 0.0 | 0.0 | 0.00 | 0.00 | 0.00 | 96 | 1014.3 |
| 20260905095506 | 74 | 0 | 0.0 | 0.0 | 0.00 | 0.00 | 0.00 | 96 | 1014.3 |
| 20260905095007 | 74 | 0 | 0.0 | 0.0 | 0.00 | 0.00 | 0.00 | 96 | 1014.3 |
| 20260905094508 | 74 | 0 | 0.0 | 0.0 | 0.00 | 0.00 | 0.00 | 96 | 1014.3 |
| 20260905094006 | 74 | 0 | 0.0 | 0.0 | 0.00 | 0.00 | 0.00 | 96 | 1014.3 |
| 20260905093719 | 74 | 0 | 0.0 | 0.0 | 0.00 | 0.00 | 0.00 | 96 | 1014.3 |
| 20260905093007 | 74 | 0 | 0.0 | 0.0 | 0.00 | 0.00 | 0.00 | 96 | 1014.2 |
| 20260905092507 | 74 | 0 | 0.0 | 0.0 | 0.00 | 0.00 | 0.00 | 96 | 1014.2 |
| 20260905092220 | 74 | 0 | 0.0 | 0.0 | 0.00 | 0.00 | 0.00 | 96 | 1014.2 |
| 20260905091506 | 73 | 0 | 0.0 | 0.0 | 0.00 | 0.00 | 0.00 | 96 | 1014.0 |
| 20260905091008 | 73 | 0 | 0.0 | 0.0 | 0.00 | 0.00 | 0.00 | 96 | 1014.0 |
| 20260905090506 | 73 | 0 | 0.0 | 0.0 | 0.00 | 0.00 | 0.00 | 96 | 1014.0 |
| 20260905090007 | 73 | 0 | 0.0 | 0.0 | 0.00 | 0.00 | 0.00 | 96 | 1014.0 |
| 20260905085507 | 73 | 0 | 0.0 | 0.0 | 0.00 | 0.00 | 0.00 | 96 | 1014.0 |
| 20260905085007 | 73 | 0 | 0.0 | 0.0 | 0.00 | 0.00 | 0.00 | 96 | 1014.0 |
| 20260905084506 | 74 | 0 | 0.0 | 0.0 | 0.00 | 0.00 | 0.00 | 96 | 1013.8 |
| 20260905084007 | 74 | 0 | 0.0 | 0.0 | 0.00 | 0.00 | 0.00 | 96 | 1013.8 |
| 20260905083721 | 74 | 0 | 0.0 | 0.0 | 0.00 | 0.00 | 0.00 | 96 | 1013.8 |
| 20260905083007 | 74 | 0 | 0.0 | 0.0 | 0.00 | 0.00 | 0.00 | 96 | 1013.6 |
| 20260905082507 | 74 | 0 | 0.0 | 0.0 | 0.00 | 0.00 | 0.00 | 96 | 1013.6 |
| 20260905082007 | 74 | 0 | 0.0 | 0.0 | 0.00 | 0.00 | 0.00 | 96 | 1013.6 |
| 20260905081506 | 74 | 0 | 0.0 | 0.0 | 0.00 | 0.00 | 0.00 | 95 | 1013.5 |
| 20260905081006 | 74 | 0 | 0.0 | 0.0 | 0.00 | 0.00 | 0.00 | 95 | 1013.5 |
| 20260905080507 | 74 | 0 | 0.0 | 0.0 | 0.00 | 0.00 | 0.00 | 95 | 1013.5 |
| 20260905080008 | 74 | 0 | 0.0 | 0.0 | 0.00 | 0.00 | 0.00 | 96 | 1013.5 |
| 20260905075720 | 74 | 0 | 0.0 | 0.0 | 0.00 | 0.00 | 0.00 | 96 | 1013.5 |
| 20260905075006 | 74 | 0 | 0.0 | 0.0 | 0.00 | 0.00 | 0.00 | 96 | 1013.5 |
| 20260905074506 | 74 | 0 | 0.0 | 0.0 | 0.00 | 0.00 | 0.00 | 95 | 1013.4 |
| 20260905074008 | 74 | 0 | 0.0 | 0.0 | 0.00 | 0.00 | 0.00 | 95 | 1013.4 |
| 20260905073507 | 74 | 0 | 0.0 | 0.0 | 0.00 | 0.00 | 0.00 | 95 | 1013.4 |
| 20260905073006 | 74 | 0 | 0.0 | 0.0 | 0.00 | 0.00 | 0.00 | 96 | 1013.5 |
| 20260905072506 | 74 | 0 | 0.0 | 0.0 | 0.00 | 0.00 | 0.00 | 96 | 1013.5 |
| 20260905072007 | 74 | 0 | 0.0 | 0.0 | 0.00 | 0.00 | 0.00 | 96 | 1013.5 |
| 20260905071507 | 74 | 0 | 0.0 | 0.0 | 0.00 | 0.00 | 0.00 | 95 | 1013.8 |
| 20260905071006 | 74 | 0 | 0.0 | 0.0 | 0.00 | 0.00 | 0.00 | 95 | 1013.8 |
| 20260905070720 | 74 | 0 | 0.0 | 0.0 | 0.00 | 0.00 | 0.00 | 95 | 1013.8 |
| 20260905070007 | 74 | 0 | 0.0 | 0.0 | 0.00 | 0.00 | 0.00 | 95 | 1013.9 |
| 20260905065507 | 74 | 0 | 0.0 | 0.0 | 0.00 | 0.00 | 0.00 | 95 | 1013.9 |
| 20260905065006 | 74 | 0 | 0.0 | 0.0 | 0.00 | 0.00 | 0.00 | 95 | 1013.9 |
| 20260905064506 | 75 | 0 | 0.0 | 0.0 | 0.00 | 0.00 | 0.00 | 95 | 1014.2 |
| 20260905064006 | 75 | 0 | 0.0 | 0.0 | 0.00 | 0.00 | 0.00 | 95 | 1014.2 |
| 20260905063507 | 75 | 0 | 0.0 | 0.0 | 0.00 | 0.00 | 0.00 | 95 | 1014.2 |
| 20260905063006 | 75 | 0 | 0.0 | 0.0 | 0.00 | 0.00 | 0.00 | 95 | 1014.3 |
| 20260905062507 | 75 | 0 | 0.0 | 0.0 | 0.00 | 0.00 | 0.00 | 95 | 1014.3 |
| 20260905062006 | 75 | 0 | 0.0 | 0.0 | 0.00 | 0.00 | 0.00 | 95 | 1014.3 |
| 20260905061508 | 75 | 0 | 0.0 | 0.0 | 0.00 | 0.00 | 0.00 | 95 | 1014.3 |
| 20260905061007 | 75 | 0 | 0.0 | 0.0 | 0.00 | 0.00 | 0.00 | 95 | 1014.3 |
| 20260905060507 | 75 | 0 | 0.0 | 0.0 | 0.00 | 0.00 | 0.00 | 95 | 1014.3 |
| 20260905060221 | 75 | 0 | 0.0 | 0.0 | 0.00 | 0.00 | 0.00 | 95 | 1014.3 |
| 20260905055507 | 75 | 0 | 0.0 | 0.0 | 0.00 | 0.00 | 0.00 | 95 | 1014.4 |
| 20260905055007 | 75 | 0 | 0.0 | 0.0 | 0.00 | 0.00 | 0.00 | 95 | 1014.4 |
| 20260905054506 | 75 | 0 | 0.0 | 0.0 | 0.00 | 0.00 | 0.00 | 95 | 1014.5 |
| 20260905054221 | 75 | 0 | 0.0 | 0.0 | 0.00 | 0.00 | 0.00 | 95 | 1014.5 |
| 20260905053508 | 75 | 0 | 0.0 | 0.0 | 0.00 | 0.00 | 0.00 | 95 | 1014.5 |
| 20260905053006 | 76 | 0 | 0.0 | 0.0 | 0.00 | 0.00 | 0.00 | 95 | 1014.6 |
| 20260905052721 | 76 | 0 | 0.0 | 0.0 | 0.00 | 0.00 | 0.00 | 95 | 1014.6 |
| 20260905052006 | 76 | 0 | 0.0 | 0.0 | 0.00 | 0.00 | 0.00 | 95 | 1014.6 |
| 20260905051507 | 76 | 0 | 0.0 | 0.0 | 0.00 | 0.00 | 0.00 | 95 | 1014.5 |
| 20260905051007 | 76 | 0 | 0.0 | 0.0 | 0.00 | 0.00 | 0.00 | 95 | 1014.5 |
| 20260905050507 | 76 | 0 | 0.0 | 0.0 | 0.00 | 0.00 | 0.00 | 95 | 1014.5 |
| 20260905050006 | 76 | 0 | 0.0 | 0.0 | 0.00 | 0.00 | 0.00 | 94 | 1014.6 |
| 20260905045507 | 76 | 0 | 0.0 | 0.0 | 0.00 | 0.00 | 0.00 | 94 | 1014.6 |
| 20260905045007 | 76 | 0 | 0.0 | 0.0 | 0.00 | 0.00 | 0.00 | 94 | 1014.6 |
| 20260905044507 | 76 | 0 | 0.0 | 0.0 | 0.00 | 0.00 | 0.00 | 95 | 1014.6 |
| 20260905044006 | 76 | 0 | 0.0 | 0.0 | 0.00 | 0.00 | 0.00 | 95 | 1014.6 |
| 20260905043721 | 76 | 0 | 0.0 | 0.0 | 0.00 | 0.00 | 0.00 | 95 | 1014.6 |
| 20260905043006 | 76 | 0 | 0.0 | 0.0 | 0.00 | 0.00 | 0.00 | 94 | 1014.5 |
| 20260905042506 | 76 | 0 | 0.0 | 0.0 | 0.00 | 0.00 | 0.00 | 94 | 1014.5 |
| 20260905042007 | 76 | 0 | 0.0 | 0.0 | 0.00 | 0.00 | 0.00 | 94 | 1014.5 |
| 20260905041507 | 77 | 0 | 0.0 | 0.0 | 0.00 | 0.00 | 0.00 | 94 | 1014.8 |
| 20260905041006 | 77 | 0 | 0.0 | 0.0 | 0.00 | 0.00 | 0.00 | 94 | 1014.8 |
| 20260905040721 | 77 | 0 | 0.0 | 0.0 | 0.00 | 0.00 | 0.00 | 94 | 1014.8 |
| 20260905040007 | 77 | 0 | 0.0 | 0.0 | 0.00 | 0.00 | 0.00 | 94 | 1015.0 |
| 20260905035507 | 77 | 0 | 0.0 | 0.0 | 0.00 | 0.00 | 0.00 | 94 | 1015.0 |
| 20260905035007 | 77 | 0 | 0.0 | 0.0 | 0.00 | 0.00 | 0.00 | 94 | 1015.0 |
| 20260905034721 | 77 | 0 | 0.0 | 0.0 | 0.00 | 0.00 | 0.00 | 94 | 1015.0 |
| 20260905034006 | 77 | 0 | 0.0 | 0.0 | 0.00 | 0.00 | 0.00 | 94 | 1015.0 |
| 20260905033506 | 77 | 0 | 0.0 | 0.0 | 0.00 | 0.00 | 0.00 | 94 | 1015.0 |
| 20260905033007 | 78 | 0 | 0.0 | 0.0 | 0.00 | 0.00 | 0.00 | 93 | 1014.9 |
| 20260905032721 | 78 | 0 | 0.0 | 0.0 | 0.00 | 0.00 | 0.00 | 93 | 1014.9 |
| 20260905032006 | 78 | 0 | 0.0 | 0.0 | 0.00 | 0.00 | 0.00 | 93 | 1014.9 |
| 20260905031506 | 78 | 0 | 0.0 | 0.0 | 0.00 | 0.00 | 0.00 | 93 | 1014.8 |
| 20260905031006 | 78 | 0 | 0.0 | 0.0 | 0.00 | 0.00 | 0.00 | 93 | 1014.8 |
| 20260905030506 | 78 | 0 | 0.0 | 0.0 | 0.00 | 0.00 | 0.00 | 93 | 1014.8 |
| 20260905030007 | 78 | 139 | 0.0 | 0.9 | 0.00 | 0.00 | 0.00 | 92 | 1014.6 |
| 20260905025506 | 78 | 139 | 0.0 | 0.9 | 0.00 | 0.00 | 0.00 | 92 | 1014.6 |
| 20260905025006 | 78 | 139 | 0.0 | 0.9 | 0.00 | 0.00 | 0.00 | 92 | 1014.6 |
| 20260905024506 | 79 | 0 | 0.0 | 0.0 | 0.00 | 0.00 | 0.00 | 92 | 1014.5 |
| 20260905024007 | 79 | 0 | 0.0 | 0.0 | 0.00 | 0.00 | 0.00 | 92 | 1014.5 |
| 20260905023506 | 79 | 0 | 0.0 | 0.0 | 0.00 | 0.00 | 0.00 | 92 | 1014.5 |
| 20260905023006 | 79 | 0 | 0.0 | 0.0 | 0.00 | 0.00 | 0.00 | 91 | 1014.5 |
| 20260905022506 | 79 | 0 | 0.0 | 0.0 | 0.00 | 0.00 | 0.00 | 91 | 1014.5 |
| 20260905022221 | 79 | 0 | 0.0 | 0.0 | 0.00 | 0.00 | 0.00 | 91 | 1014.5 |
| 20260905021507 | 79 | 0 | 0.0 | 0.0 | 0.00 | 0.00 | 0.00 | 90 | 1014.6 |
| 20260905021006 | 79 | 0 | 0.0 | 0.0 | 0.00 | 0.00 | 0.00 | 90 | 1014.6 |
| 20260905020506 | 79 | 0 | 0.0 | 0.0 | 0.00 | 0.00 | 0.00 | 90 | 1014.6 |
| 20260905020221 | 79 | 0 | 0.0 | 0.0 | 0.00 | 0.00 | 0.00 | 90 | 1014.6 |
| 20260905015506 | 80 | 0 | 0.0 | 0.0 | 0.00 | 0.00 | 0.00 | 90 | 1014.5 |
| 20260905015219 | 80 | 0 | 0.0 | 0.0 | 0.00 | 0.00 | 0.00 | 90 | 1014.5 |
| 20260905014507 | 80 | 0 | 0.0 | 0.0 | 0.00 | 0.00 | 0.00 | 89 | 1014.5 |
| 20260905014007 | 80 | 0 | 0.0 | 0.0 | 0.00 | 0.00 | 0.00 | 89 | 1014.5 |
| 20260905013507 | 80 | 0 | 0.0 | 0.0 | 0.00 | 0.00 | 0.00 | 89 | 1014.5 |
| 20260905013007 | 81 | 0 | 0.0 | 0.0 | 0.00 | 0.00 | 0.00 | 87 | 1014.4 |
| 20260905012506 | 81 | 0 | 0.0 | 0.0 | 0.00 | 0.00 | 0.00 | 87 | 1014.4 |
| 20260905012006 | 81 | 0 | 0.0 | 0.0 | 0.00 | 0.00 | 0.00 | 87 | 1014.4 |
| 20260905011722 | 81 | 0 | 0.0 | 0.0 | 0.00 | 0.00 | 0.00 | 87 | 1014.4 |
| 20260905011006 | 82 | 0 | 0.0 | 0.0 | 0.00 | 0.00 | 0.00 | 86 | 1014.4 |
| 20260905010720 | 82 | 0 | 0.0 | 0.0 | 0.00 | 0.00 | 0.00 | 86 | 1014.4 |
| 20260905010008 | 82 | 0 | 0.0 | 0.0 | 0.00 | 0.00 | 0.00 | 83 | 1014.2 |
| 20260905005506 | 82 | 0 | 0.0 | 0.0 | 0.00 | 0.00 | 0.00 | 83 | 1014.2 |
| 20260905005006 | 82 | 0 | 0.0 | 0.0 | 0.00 | 0.00 | 0.00 | 83 | 1014.2 |
| 20260905004507 | 84 | 0 | 0.0 | 0.0 | 0.00 | 0.00 | 0.00 | 81 | 1014.1 |
| 20260905004007 | 84 | 0 | 0.0 | 0.0 | 0.00 | 0.00 | 0.00 | 81 | 1014.1 |
| 20260905003507 | 84 | 0 | 0.0 | 0.0 | 0.00 | 0.00 | 0.00 | 81 | 1014.1 |
| 20260905003007 | 85 | 0 | 0.0 | 0.0 | 0.00 | 0.00 | 0.00 | 78 | 1014.0 |
| 20260905002507 | 85 | 0 | 0.0 | 0.0 | 0.00 | 0.00 | 0.00 | 78 | 1014.0 |
| 20260905002007 | 85 | 0 | 0.0 | 0.0 | 0.00 | 0.00 | 0.00 | 78 | 1014.0 |
| 20260905001719 | 85 | 0 | 0.0 | 0.0 | 0.00 | 0.00 | 0.00 | 78 | 1014.0 |
| 20260905001007 | 86 | 0 | 0.0 | 0.0 | 0.00 | 0.00 | 0.00 | 75 | 1014.1 |
| 20260905000506 | 86 | 0 | 0.0 | 0.0 | 0.00 | 0.00 | 0.00 | 75 | 1014.1 |
| 20260905000007 | 89 | 0 | 0.0 | 0.0 | 0.00 | 0.00 | 0.00 | 73 | 1014.1 |
| 20260904235507 | 89 | 0 | 0.0 | 0.0 | 0.00 | 0.00 | 0.00 | 73 | 1014.1 |
| 20260904235007 | 89 | 0 | 0.0 | 0.0 | 0.00 | 0.00 | 0.00 | 73 | 1014.1 |
| 20260904234506 | 90 | 0 | 0.0 | 0.0 | 0.00 | 0.00 | 0.00 | 69 | 1014.2 |
| 20260904234006 | 90 | 0 | 0.0 | 0.0 | 0.00 | 0.00 | 0.00 | 69 | 1014.2 |
| 20260904233507 | 90 | 0 | 0.0 | 0.0 | 0.00 | 0.00 | 0.00 | 69 | 1014.2 |
| 20260904233007 | 91 | 139 | 0.0 | 0.9 | 0.00 | 0.00 | 0.00 | 66 | 1014.1 |
| 20260904232507 | 91 | 139 | 0.0 | 0.9 | 0.00 | 0.00 | 0.00 | 66 | 1014.1 |
| 20260904232006 | 91 | 139 | 0.0 | 0.9 | 0.00 | 0.00 | 0.00 | 66 | 1014.1 |
| 20260904231506 | 92 | 139 | 0.0 | 1.7 | 0.00 | 0.00 | 0.00 | 61 | 1013.9 |
| 20260904231007 | 92 | 139 | 0.0 | 1.7 | 0.00 | 0.00 | 0.00 | 61 | 1013.9 |
| 20260904230507 | 92 | 139 | 0.0 | 1.7 | 0.00 | 0.00 | 0.00 | 61 | 1013.9 |
| 20260904230220 | 92 | 139 | 0.0 | 1.7 | 0.00 | 0.00 | 0.00 | 61 | 1013.9 |
| 20260904225507 | 94 | 170 | 0.9 | 2.6 | 0.00 | 0.00 | 0.00 | 56 | 1013.8 |
| 20260904225006 | 94 | 170 | 0.9 | 2.6 | 0.00 | 0.00 | 0.00 | 56 | 1013.8 |
| 20260904224721 | 94 | 170 | 0.9 | 2.6 | 0.00 | 0.00 | 0.00 | 56 | 1013.8 |
| 20260904224007 | 96 | 113 | 0.9 | 1.7 | 0.00 | 0.00 | 0.00 | 54 | 1013.9 |
| 20260904223506 | 96 | 113 | 0.9 | 1.7 | 0.00 | 0.00 | 0.00 | 54 | 1013.9 |
| 20260904223007 | 96 | 73 | 0.9 | 3.5 | 0.00 | 0.00 | 0.00 | 53 | 1013.8 |
| 20260904222506 | 96 | 73 | 0.9 | 3.5 | 0.00 | 0.00 | 0.00 | 53 | 1013.8 |
| 20260904222006 | 96 | 73 | 0.9 | 3.5 | 0.00 | 0.00 | 0.00 | 53 | 1013.8 |
| 20260904221508 | 96 | 182 | 1.7 | 4.3 | 0.00 | 0.00 | 0.00 | 53 | 1013.9 |
| 20260904221007 | 96 | 182 | 1.7 | 4.3 | 0.00 | 0.00 | 0.00 | 53 | 1013.9 |
| 20260904220506 | 96 | 182 | 1.7 | 4.3 | 0.00 | 0.00 | 0.00 | 53 | 1013.9 |
| 20260904220006 | 96 | 139 | 1.7 | 3.5 | 0.00 | 0.00 | 0.00 | 53 | 1014.0 |
| 20260904215506 | 96 | 139 | 1.7 | 3.5 | 0.00 | 0.00 | 0.00 | 53 | 1014.0 |
| 20260904215007 | 96 | 139 | 1.7 | 3.5 | 0.00 | 0.00 | 0.00 | 53 | 1014.0 |
| 20260904214507 | 96 | 144 | 1.7 | 3.5 | 0.00 | 0.00 | 0.00 | 51 | 1014.0 |
| 20260904214007 | 96 | 144 | 1.7 | 3.5 | 0.00 | 0.00 | 0.00 | 51 | 1014.0 |
| 20260904213506 | 96 | 144 | 1.7 | 3.5 | 0.00 | 0.00 | 0.00 | 51 | 1014.0 |
| 20260904213006 | 96 | 174 | 1.7 | 5.2 | 0.00 | 0.00 | 0.00 | 50 | 1014.1 |
| 20260904212506 | 96 | 174 | 1.7 | 5.2 | 0.00 | 0.00 | 0.00 | 50 | 1014.1 |
| 20260904212008 | 96 | 174 | 1.7 | 5.2 | 0.00 | 0.00 | 0.00 | 50 | 1014.1 |
| 20260904211507 | 96 | 166 | 1.7 | 5.2 | 0.00 | 0.00 | 0.00 | 51 | 1014.2 |
| 20260904211006 | 96 | 166 | 1.7 | 5.2 | 0.00 | 0.00 | 0.00 | 51 | 1014.2 |
| 20260904210507 | 96 | 166 | 1.7 | 5.2 | 0.00 | 0.00 | 0.00 | 51 | 1014.2 |
| 20260904210007 | 96 | 157 | 1.7 | 3.5 | 0.00 | 0.00 | 0.00 | 48 | 1014.3 |
| 20260904205506 | 96 | 157 | 1.7 | 3.5 | 0.00 | 0.00 | 0.00 | 48 | 1014.3 |